Simultaneous Nadir Overpasses (SNOs) Predictions

Prediction of SNOs between METOP-A and NOAA-19 Satellite Orbit:

Table of predicted SNOs for the next 14.0 days since TLE Epoch: 11/17/2018
Index Date (METOP-A) Time (METOP-A) Lat,Lon (METOP-A) SZA (METOP-A ) Date (NOAA-19) Time (NOAA-19) Lat,Lon (NOAA-19) SZA (NOAA-19 ) Distance(km) Time Diff (sec)
1 11/21/2018 00:13:21 79.27,-171.85 99.41 11/21/2018 00:12:13 79.29,-174.75 99.30 59.98 68
2 11/21/2018 01:04:07 -79.10, -5.75 80.81 11/21/2018 01:03:05 -79.09, -5.74 80.83 1.34 62
3 11/21/2018 01:54:48 79.07, 161.39 99.17 11/21/2018 01:54:08 79.10, 161.36 99.20 3.70 40
4 11/21/2018 02:45:29 -79.08, -31.24 80.82 11/21/2018 02:45:06 -79.09, -31.24 80.81 1.05 23
5 11/21/2018 03:36:09 79.09, 136.16 99.21 11/21/2018 03:36:08 79.07, 136.12 99.19 1.79 1
6 11/21/2018 04:26:51 -79.06, -56.72 80.83 11/21/2018 04:27:07 -79.09, -56.74 80.80 3.45 16
7 11/21/2018 05:17:31 79.07, 110.67 99.19 11/21/2018 05:18:09 79.07, 110.63 99.21 1.12 38
8 11/21/2018 06:08:12 -79.07, -81.96 80.80 11/21/2018 06:09:07 -79.06, -81.98 80.80 1.90 55




NCC Satellite Simultaneous Nadir Overpasses (SNOs) Prediction Service
